Location: ???????????
(55.5758°N, 38.4970°E)
Time: 17:55:59
(UTC+00:00)

SKYMED 2 - Pass Details

Date: 15 November 2025
Orbit: 621 x 623 km, 97.9° (Epoch: 14 December)

Event Time Altitude Azimuth Distance (km) Brightness Sun altitude
Rises 02:10:32 0° 158° (SSE) 2,898 7.3 -23.6°
Reaches altitude 10° 02:12:43 10° 157° (SSE) 1,995 6.4 -23.3°
Maximum altitude 02:17:03 78° 72° (ENE) 646 3.6 -22.7°
Enters shadow 02:20:08 19° 348° (NNW) 1,491 5.4 -22.3°
